Weather in Divonne-les-Bains

France     46°21′05″N   6°07′49″E
temp.,
°C
wind,
m/s
gust,
m/s
humid.,
%
clouds,
%
prec.,
mm/h
press.,
hPa
HPBL,
m
8 august, mon
mon823:00+18nne477416 0.0 1018286
02:00+16ene34860 0.0 1018164
05:00+14ene23896 0.0 1019117
08:00+16ne358326 0.0 1019365
11:00+22nne45530 0.0 1019928
14:00+27ne55370 0.0 10181384
17:00+28nne66290 0.0 10171750
20:00+26nne69350 0.0 1017946
9 august, tue
tue923:00+20ne48580 0.0 1019299
02:00+17ene24740 0.0 1020133
05:00+15ene12820 0.0 1020112
08:00+17ne23730 0.0 1021256
11:00+23nne44490 0.0 1020790
14:00+28ne56350 0.0 10191168
17:00+29ne66284 0.0 10181618
20:00+26nne69364 0.0 1018916
10 august, wed
wed1023:00+20ne58545 0.0 1019300
02:00+16ene23724 0.0 1020118
05:00+14ne12790 0.0 102084
08:00+17ne12711 0.0 1021188
11:00+23nne33491 0.0 1020638
14:00+28nne32354 0.0 10181027
17:00+30n222741 0.0 10161595
20:00+27ne3538100 0.0 1016150
11 august, thu
thu1123:00+21ne475677 0.0 1018251
02:00+17ne126846 0.0 101986
05:00+15e11770 0.0 101973
08:00+17nne11660 0.0 1019143
11:00+24n22450 0.0 1017539
14:00+29n22325 0.0 10161123
17:00+32nne22222 0.0 10132387
20:00+28ne333592 0.0 101370
12 august, fri
fri1223:00+22ne475667 0.0 1015192
02:00+18ene227069 0.0 101682
05:00+16ne117460 0.0 101573
08:00+18ne12640 0.0 1014174
11:00+24nne22475 0.0 1013616
14:00+29nne23350 0.0 10111278
17:00+32nnw45222 0.0 10092700
20:00+27ne68400 0.0 1010466